[[{"header":{"parameterUnit":"m.s-1","parameterCategory":1,"la1":30.2991,"la2":30.254,"lo1":-89.0895,"lo2":-89.0444,"dy":0.0017,"dx":0.0017,"nx":28,"ny":28,"refTime":"2025-01-31T09:00:00:Z","depth":0,"parameterNumber":2,"parameterNumberName":"U-component_of_WINDS"},"data":[0,0,0,0,0,0,0,0,0,0,0,0,0,0,0,0,0,0,0,0,0,0,0,0,0,0,0,0,0,0,0,0,0,0,0,0,0,0,0,0,0,0,0,0,0,0,0,0,0,0,0,0,0,0,0,0,0,0,3.5452,3.5452,0,3.5487,3.5488,3.5488,3.5416,3.5413,3.5411,3.5409,3.5447,3.545,3.5453,0,0,0,0,0,0,0,0,0,0,0,0,0,3.5326,3.5329,3.5452,3.5452,3.5453,3.5487,3.5488,3.5488,3.5416,3.5413,3.541,3.5408,3.5446,3.5449,3.5453,0,0,0,0,0,0,0,0,0,0,0,0,0,3.5373,3.533,3.5452,3.5421,3.5418,3.5487,3.5488,3.5488,3.5417,3.5413,3.541,3.5406,3.5444,3.5449,3.5454,3.5554,0,0,3.5469,3.5471,0,0,0,0,0,0,0,0,3.537,3.5378,3.5425,3.5423,3.542,3.5443,3.5457,3.551,3.5418,3.5417,3.5409,3.5405,3.5449,3.5453,3.5467,3.5556,3.5558,3.5469,3.5472,3.5474,3.5475,0,0,0,0,0,0,0,3.5367,3.5376,3.5466,3.5426,3.5423,3.5407,3.5409,3.5467,3.5453,3.5417,3.5412,3.5417,3.5447,3.5463,3.5468,3.5558,3.5469,3.5473,3.5476,3.5478,3.5736,3.574,0,0,0,0,0,0,3.5367,3.5374,3.5465,3.5467,3.5386,3.5412,3.5415,3.544,3.5452,3.545,3.542,3.5414,3.5456,3.5462,3.5469,3.559,3.5474,3.5478,3.5481,3.5732,3.5737,3.5741,0,0,0,0,0,0,3.5365,3.5376,3.5463,3.5419,3.5429,3.5418,3.5446,3.5442,3.5458,3.5454,3.5451,3.5439,3.5454,3.5462,3.5535,3.559,3.5481,3.5485,3.5728,3.5734,3.5739,3.5832,0,0,0,0,0,0,3.5362,3.5376,3.5413,3.542,3.5431,3.5527,3.5449,3.5445,3.5466,3.5458,3.5471,3.547,3.5452,3.5528,3.5539,3.5595,3.5489,3.5723,3.573,3.5737,3.5824,3.584,3.5854,0,0,0,0,0,3.5357,3.5437,3.5415,3.5426,3.5477,3.553,3.5537,3.5514,3.5471,3.5509,3.5507,3.5469,3.5582,3.5536,3.5548,3.5606,3.5719,3.5728,3.5737,3.5817,3.5837,3.5854,0,0,0,0,0,0,3.5435,3.5437,3.5413,3.5496,3.5514,3.5518,3.5565,3.5536,3.5566,3.5557,3.5528,3.5532,3.5611,3.5616,3.5564,3.5706,3.5644,3.5655,3.57,3.5719,3.5734,3.5732,3.5493,0,0,0,0,0,3.5462,3.5505,3.5504,3.5578,3.5588,3.5576,3.5598,3.558,3.5597,3.5604,3.5607,3.5626,3.5666,3.5693,3.5729,3.5824,3.5828,3.5871,3.5886,3.5898,3.5909,3.5964,3.5984,3.5771,3.5771,3.5771,0,0,3.5518,3.5524,3.5553,3.5594,3.5605,3.5652,3.5582,3.5633,3.5668,3.5611,3.5681,3.5684,3.5704,3.5789,3.5827,3.5795,3.5969,3.591,3.592,3.5924,3.5975,3.5995,3.6013,3.5777,3.5776,3.5775,0,0,3.5644,3.5652,3.5716,3.573,3.5749,3.574,3.5756,3.5766,3.5766,3.5835,3.5795,3.5837,3.5905,3.5922,3.594,3.6077,3.6044,3.609,3.617,3.6223,3.624,3.6255,3.6306,3.6325,3.61,3.6101,3.6101,0,3.5711,3.5779,3.5753,3.5808,3.5829,3.5781,3.5847,3.5862,3.5892,3.5908,3.5872,3.5961,3.597,3.6061,3.6095,3.6109,3.6129,3.6088,3.6239,3.6254,3.6268,3.6317,3.6336,3.6106,3.6106,3.6105,3.6104,0,3.5862,3.591,3.596,3.5991,3.6017,3.6077,3.6063,3.6093,3.6074,3.607,3.6143,3.6154,3.6193,3.6213,3.6193,3.6302,3.6283,3.6244,3.618,3.6294,3.634,3.6358,3.6114,3.6112,3.611,3.6109,0,0,3.6036,3.6055,3.6073,3.6089,3.6108,3.6145,3.6205,3.6244,3.6271,3.6295,3.6346,3.6407,3.6373,3.6393,3.6375,3.6422,3.6535,3.6378,3.6378,3.6409,3.6659,3.6689,3.6711,3.6513,3.6517,3.6519,3.6658,0,3.6162,3.6265,3.6246,3.6346,3.6392,3.6349,3.6402,3.6421,3.642,3.646,3.6459,3.6504,3.6453,3.6466,3.651,3.6511,3.6585,3.6501,3.6563,3.6565,3.656,3.6734,3.6765,3.6895,3.6675,3.6678,3.668,0,3.6323,3.6354,3.6459,3.6475,3.6493,3.6541,3.6577,3.6615,3.6637,3.6633,3.6658,3.6633,3.6695,3.6631,3.6718,3.6662,3.6687,3.6692,3.6696,3.6702,3.663,3.6746,3.6936,3.6956,3.6708,3.6706,3.6704,0,3.6442,3.651,3.6583,3.6597,3.6616,3.6651,3.6661,3.6679,3.6705,3.6737,3.6754,3.6793,3.6815,3.6847,3.6835,3.6788,3.6926,3.6859,3.6926,3.6927,3.6957,3.6956,3.7155,3.6971,3.6971,3.697,3.697,0,3.6586,3.6653,3.6637,3.6682,3.6757,3.6736,3.6811,3.6815,3.6833,3.688,3.6845,3.689,3.687,3.6914,3.6905,3.6981,3.699,3.6991,3.6988,3.6995,3.6995,3.7011,3.7002,3.6976,3.6974,3.6973,3.6973,0,3.6732,3.6723,3.68,3.6813,3.6818,3.6873,3.6885,3.6928,3.6926,3.6986,3.6999,3.6996,3.7047,3.7038,3.7093,3.7087,3.7183,3.7168,3.7176,3.7173,3.7241,3.7236,3.7459,3.7488,3.7284,3.7286,3.7287,0,3.6825,3.6876,3.6895,3.6924,3.6937,3.6983,3.701,3.6992,3.7022,3.7053,3.7094,3.7142,3.7179,3.7263,3.7267,3.7311,3.7298,3.7373,3.7304,3.7311,3.7302,3.73,3.7306,3.7387,3.7389,3.7391,3.7393,0,3.6992,3.6986,3.7026,3.7066,3.7099,3.713,3.7157,3.7183,3.7168,3.7204,3.7256,3.7285,3.7344,3.7393,3.7435,3.7447,3.7419,3.7415,3.7433,3.7441,3.7444,3.7446,3.7215,3.741,3.7408,3.7407,3.7406,3.7405,3.7115,3.716,3.7181,3.7228,3.7247,3.7274,3.7317,3.7321,3.7364,3.741,3.7397,3.7458,3.7482,3.7535,3.7552,3.76,3.7572,3.7598,3.7605,3.7612,3.7621,3.7436,3.7607,3.7607,3.7606,3.7606,3.7606,0,3.7282,3.7295,3.7338,3.7378,3.7416,3.7386,3.7416,3.745,3.7503,3.7528,3.7567,3.7629,3.7677,3.7686,3.7733,3.777,3.7759,3.7784,3.7781,3.7785,3.7642,3.7623,3.7792,3.7792,3.7792,3.7792,3.7792,3.7792,3.7374,3.7449,3.7446,3.7532,3.7544,3.7602,3.7623,3.7649,3.7669,3.774,3.778,3.7786,3.7805,3.7854,3.7899,3.79,3.792,3.795,3.7947,3.7813,3.7795,3.7777,3.7759,3.7954,3.7954,3.8086,3.8088,3.8088]},{"header":{"parameterUnit":"m.s-1","parameterCategory":1,"la1":30.2991,"la2":30.254,"lo1":-89.0895,"lo2":-89.0444,"dy":0.0017,"dx":0.0017,"nx":28,"ny":28,"refTime":"2025-01-31T09:00:00:Z","depth":0,"parameterNumber":3,"parameterNumberName":"V-component_of_WINDS"},"data":[0,0,0,0,0,0,0,0,0,0,0,0,0,0,0,0,0,0,0,0,0,0,0,0,0,0,0,0,0,0,0,0,0,0,0,0,0,0,0,0,0,0,0,0,0,0,0,0,0,0,0,0,0,0,0,0,0,0,-0.2088,-0.2086,0,-0.1974,-0.1973,-0.1971,-0.193,-0.193,-0.1931,-0.1931,-0.1811,-0.1808,-0.1804,0,0,0,0,0,0,0,0,0,0,0,0,0,-0.2268,-0.2264,-0.2088,-0.2086,-0.2085,-0.1974,-0.1973,-0.1971,-0.193,-0.193,-0.1931,-0.1931,-0.1813,-0.1808,-0.1804,0,0,0,0,0,0,0,0,0,0,0,0,0,-0.2175,-0.2263,-0.2088,-0.2051,-0.2047,-0.1975,-0.1973,-0.1971,-0.193,-0.193,-0.1931,-0.1932,-0.1814,-0.1809,-0.1804,-0.1759,0,0,-0.1787,-0.1785,0,0,0,0,0,0,0,0,-0.218,-0.2169,-0.2058,-0.2054,-0.2048,-0.1967,-0.1992,-0.1899,-0.193,-0.1974,-0.1931,-0.1932,-0.1862,-0.1853,-0.183,-0.1753,-0.1748,-0.1787,-0.1784,-0.1781,-0.178,0,0,0,0,0,0,0,-0.2187,-0.2173,-0.2043,-0.2056,-0.2051,-0.204,-0.2027,-0.1974,-0.1916,-0.197,-0.1967,-0.1954,-0.186,-0.1836,-0.1827,-0.1746,-0.1787,-0.1782,-0.1779,-0.1777,-0.1628,-0.1627,0,0,0,0,0,0,-0.22,-0.2179,-0.2046,-0.2039,-0.2117,-0.2036,-0.2022,-0.1992,-0.1917,-0.1906,-0.1954,-0.1953,-0.1844,-0.1834,-0.1823,-0.1766,-0.1781,-0.1776,-0.1773,-0.1628,-0.1628,-0.1627,0,0,0,0,0,0,-0.2204,-0.2188,-0.2051,-0.2108,-0.209,-0.2032,-0.1999,-0.199,-0.1966,-0.1904,-0.1894,-0.194,-0.1845,-0.183,-0.1775,-0.1761,-0.1774,-0.1769,-0.1629,-0.1628,-0.1627,-0.1652,0,0,0,0,0,0,-0.2209,-0.219,-0.2173,-0.2108,-0.2087,-0.2006,-0.1998,-0.1987,-0.1957,-0.1954,-0.1888,-0.1878,-0.1844,-0.1784,-0.177,-0.1754,-0.1765,-0.163,-0.1629,-0.1628,-0.1652,-0.1651,-0.1651,0,0,0,0,0,-0.2216,-0.2183,-0.2172,-0.2156,-0.2064,-0.2005,-0.1993,-0.1955,-0.1956,-0.1938,-0.1899,-0.188,-0.1765,-0.1778,-0.1763,-0.1745,-0.1631,-0.1629,-0.1628,-0.1652,-0.1652,-0.1651,0,0,0,0,0,0,-0.2246,-0.2174,-0.2161,-0.2106,-0.2062,-0.1998,-0.1974,-0.1956,-0.191,-0.1909,-0.1864,-0.1849,-0.1798,-0.1766,-0.1782,-0.1698,-0.1697,-0.1692,-0.1721,-0.172,-0.172,-0.1728,-0.176,0,0,0,0,0,-0.2246,-0.2205,-0.2144,-0.2102,-0.2081,-0.2032,-0.2004,-0.198,-0.1932,-0.1912,-0.1869,-0.1823,-0.1776,-0.1747,-0.17,-0.1648,-0.1633,-0.1628,-0.1628,-0.1628,-0.1623,-0.1594,-0.1591,-0.1621,-0.1621,-0.1621,0,0,-0.2246,-0.2202,-0.2178,-0.2107,-0.207,-0.2028,-0.2016,-0.1972,-0.194,-0.1905,-0.1851,-0.1818,-0.1763,-0.171,-0.1684,-0.1681,-0.1612,-0.1625,-0.1626,-0.1622,-0.1592,-0.1589,-0.1587,-0.162,-0.162,-0.162,0,0,-0.2225,-0.2187,-0.2149,-0.2113,-0.2057,-0.2025,-0.2016,-0.1955,-0.1932,-0.1878,-0.1852,-0.1813,-0.1734,-0.1696,-0.1667,-0.1634,-0.1615,-0.162,-0.1618,-0.159,-0.1588,-0.1585,-0.1574,-0.157,-0.1617,-0.1617,-0.1617,0,-0.2231,-0.2168,-0.2131,-0.2088,-0.2058,-0.2027,-0.1987,-0.1954,-0.1886,-0.1865,-0.1864,-0.1765,-0.1726,-0.1664,-0.1656,-0.1633,-0.1621,-0.1627,-0.1591,-0.1589,-0.1586,-0.1574,-0.157,-0.1618,-0.1618,-0.1618,-0.1617,0,-0.2179,-0.2136,-0.2111,-0.2048,-0.2015,-0.1974,-0.193,-0.1901,-0.188,-0.1848,-0.1794,-0.1746,-0.169,-0.1674,-0.1652,-0.1609,-0.1609,-0.16,-0.1598,-0.1585,-0.1573,-0.1568,-0.1619,-0.1619,-0.1618,-0.1618,0,0,-0.2171,-0.209,-0.2082,-0.2053,-0.1991,-0.1957,-0.1915,-0.1862,-0.1838,-0.1793,-0.1757,-0.1692,-0.1684,-0.1651,-0.1625,-0.16,-0.1578,-0.1594,-0.1592,-0.1593,-0.1528,-0.1535,-0.153,-0.1566,-0.1565,-0.1564,-0.1533,0,-0.2141,-0.2066,-0.2033,-0.1972,-0.1932,-0.1903,-0.1867,-0.1825,-0.1795,-0.1755,-0.1721,-0.1676,-0.1669,-0.1649,-0.1624,-0.1586,-0.1564,-0.1588,-0.1531,-0.153,-0.1545,-0.1524,-0.153,-0.1503,-0.1528,-0.1527,-0.1526,0,-0.2096,-0.2053,-0.1989,-0.1934,-0.1915,-0.1883,-0.1833,-0.1796,-0.1748,-0.1728,-0.1692,-0.1668,-0.1623,-0.1625,-0.1563,-0.158,-0.1555,-0.1533,-0.1531,-0.1523,-0.1527,-0.1516,-0.1493,-0.1489,-0.1519,-0.152,-0.152,0,-0.2097,-0.2023,-0.1975,-0.1952,-0.1886,-0.1864,-0.1836,-0.1789,-0.1759,-0.1715,-0.1696,-0.1647,-0.162,-0.1582,-0.1545,-0.155,-0.1487,-0.1485,-0.1468,-0.1469,-0.1455,-0.1456,-0.1428,-0.144,-0.144,-0.144,-0.144,0,-0.2067,-0.2029,-0.1975,-0.1946,-0.1903,-0.1865,-0.1823,-0.1792,-0.1751,-0.1715,-0.1687,-0.1654,-0.1608,-0.1569,-0.1539,-0.1493,-0.148,-0.1462,-0.1455,-0.1464,-0.1467,-0.1447,-0.1447,-0.1439,-0.1439,-0.144,-0.144,0,-0.2059,-0.2022,-0.1968,-0.1911,-0.1896,-0.1867,-0.1818,-0.1788,-0.1758,-0.1713,-0.17,-0.1651,-0.1604,-0.1564,-0.1502,-0.1482,-0.1434,-0.1425,-0.145,-0.1446,-0.1431,-0.1433,-0.1388,-0.138,-0.1399,-0.1399,-0.1399,0,-0.2042,-0.2013,-0.1953,-0.1928,-0.19,-0.186,-0.183,-0.1793,-0.1763,-0.1708,-0.1685,-0.1636,-0.1595,-0.1521,-0.148,-0.1432,-0.1422,-0.141,-0.1414,-0.1426,-0.1422,-0.1424,-0.1421,-0.1409,-0.1409,-0.1409,-0.1409,0,-0.2016,-0.1999,-0.1959,-0.1912,-0.1879,-0.184,-0.18,-0.1781,-0.1736,-0.1704,-0.1657,-0.1625,-0.1562,-0.1514,-0.1463,-0.1433,-0.1413,-0.1408,-0.1402,-0.1411,-0.1427,-0.1418,-0.1449,-0.1409,-0.1409,-0.1409,-0.1409,-0.1409,-0.2003,-0.1976,-0.193,-0.1886,-0.1853,-0.1817,-0.1787,-0.1754,-0.1714,-0.1661,-0.1641,-0.1592,-0.1547,-0.1476,-0.1446,-0.1407,-0.1404,-0.1395,-0.1392,-0.139,-0.1392,-0.1434,-0.1398,-0.1397,-0.1397,-0.1397,-0.1397,0,-0.1975,-0.1945,-0.1905,-0.1852,-0.1817,-0.1804,-0.176,-0.1732,-0.169,-0.165,-0.1611,-0.1556,-0.151,-0.1467,-0.1418,-0.1396,-0.1386,-0.1384,-0.1385,-0.1379,-0.1397,-0.1407,-0.1393,-0.1393,-0.1393,-0.1393,-0.1393,-0.1393,-0.1956,-0.191,-0.1889,-0.1826,-0.1796,-0.1749,-0.1725,-0.1692,-0.166,-0.1601,-0.1563,-0.1536,-0.1494,-0.1443,-0.14,-0.1388,-0.1372,-0.1373,-0.1359,-0.1376,-0.1377,-0.1378,-0.1388,-0.137,-0.1369,-0.1343,-0.1343,-0.1343]}]]